Flag for U.S.A. Weather past 2 weeks in Scottsdale, Arizona, U.S.A.

Now
67 °F

Clear.


Feels Like: 67 °F
Forecast: 64 / 87 °F
Wind: No wind

Location: Scottsdale Airport

Current Time: Oct 2, 2014 at 5:14:13 AM

Latest Report: Oct 2, 2014 at 4:53 AM


Visibility: 10 mi

Pressure: 29.88 "Hg

Humidity: 49%

Dew point: 47 °F

Location of ScottsdaleLocation

Historic Weather in Scottsdale — Graph

°F

Scottsdale temperature yesterday

Maximum temperature yesterday: 88 °F (at 3:53 PM)
Minimum temperature yesterday: 64 °F (at 5:53 AM)
Average temperature yesterday: 77 °F

Past Weeks' High & Low Weather Summary

 TemperatureHumidityPressure
High101 °F (Sep 24, 2:53 PM)93% (Sep 27, 9:53 PM)29.94 "Hg (Sep 27, 9:53 PM)
Low62 °F (Sep 30, 6:53 AM)15% (Sep 23, 4:53 PM)29.61 "Hg (Sep 27, 1:53 PM)
Average83 °F44%29.79 "Hg
* Reported Sep 17 3:53 AM — Oct 2 3:53 AM, Scottsdale, Weather by CustomWeather, © 2014

Note: Actual official high and low records may vary slightly from our data, if they occured in-between our weather recording intervals... More about our weather records

Advertising

Scottsdale weather history for previous 24 hours

 ConditionsComfort  
Time TempWeatherWind HumidityBarometerVisibility
3:53 AM
Oct 2
74 °FClear.3 mph31%29.84 "Hg10 mi
2:53 AM73 °FClear.7 mph34%29.83 "Hg10 mi
1:53 AM68 °FClear.No wind53%29.83 "Hg10 mi
12:53 AM72 °FClear.No wind40%29.81 "Hg10 mi
11:53 PM
Oct 1
74 °FClear.No wind37%29.81 "Hg10 mi
10:53 PM76 °FClear.No wind35%29.80 "Hg10 mi
9:53 PM77 °FClear.No wind37%29.80 "Hg10 mi
8:53 PM80 °FClear.No wind28%29.79 "Hg10 mi
7:53 PM81 °FClear.No wind27%29.77 "Hg10 mi
6:53 PM83 °FClear.No wind24%29.75 "Hg10 mi
5:53 PM86 °FSunny.7 mph20%29.74 "Hg10 mi
4:53 PM87 °FSunny.3 mph18%29.73 "Hg10 mi
3:53 PM88 °FSunny.5 mph18%29.72 "Hg10 mi
2:53 PM87 °FSunny.No wind17%29.73 "Hg10 mi
1:53 PM87 °FSunny.No wind17%29.72 "Hg10 mi
12:53 PM85 °FSunny.5 mph23%29.75 "Hg10 mi
11:53 AM83 °FSunny.No wind26%29.77 "Hg10 mi
10:53 AM81 °FSunny.6 mph26%29.78 "Hg10 mi
9:53 AM80 °FSunny.7 mph27%29.79 "Hg10 mi
8:53 AM73 °FSunny.No wind44%29.78 "Hg10 mi
7:53 AM69 °FSunny.No wind59%29.78 "Hg10 mi
6:53 AM66 °FSunny.No wind59%29.76 "Hg10 mi
5:53 AM64 °FClear.No wind65%29.74 "Hg10 mi
Weather by CustomWeather, © 2014

See weather overviewHow to use our weather pages